Location: Hylvaty SDH
(49.9612°N, 16.4057°E)
Time: 04:19:28
(UTC+01:00)

Tiros 1 despin weight - Pass Details

Date: 24 January 2021
Orbit: 593 x 642 km, 48.2° (Epoch: 24 February)

Event Time Altitude Azimuth Distance (km) Brightness Sun altitude
Rises 17:56:38 0° 275° (W) 2,864 ? -12.9°
Reaches altitude 10° 17:58:58 10° 272° (W) 1,952 ? -13.3°
Maximum altitude 18:03:22 61° 193° (SSW) 683 ? -14.0°
Enters shadow 18:06:40 17° 116° (ESE) 1,530 ? -14.5°
